Wind_Speed
11 12 15 15 14 14 15 15 16 16 17 17 15 16 17 16 15 14 14 14 15 15 18 18 17 15 15 14 13 14 13 11 11 9 8 7 6 5 5 4 3 4 5 3 3 3 2 2 2 2 3 4 5 6 6 6 7 8 10 11 10 10 10 10 12 15 15 13 14 15 15 15 15 14 15 16 16 16 17 17 18 19 19 18 18
14 14 14 14 14 14 15 15 16 17 17 17 18 18 18 18 18 17 16 16 16 16 18 19 18 16 16 16 14 14 15 14 13 12 11 10 9 8 9 8 6 6 7 7 6 6 4 2 2 3 3 3 4 5 5 4 3 3 4 6 6 7 8 10 12 16 18 17 16 17 17 16 15 16 17 18 19 19 19 18 17 17 17 16 16
19 20 18 16 15 14 15 16 18 19 18 18 18 19 18 19 20 19 18 18 18 19 19 19 19 18 18 18 16 15 15 15 15 15 13 13 12 12 12 11 9 8 10 10 9 9 7 4 5 6 5 5 5 6 6 6 5 3 3 5 6 7 9 11 12 15 19 20 20 20 20 18 17 19 18 18 18 19 19 18 18 18 19 18 17
10 15 17 16 16 16 17 19 21 21 20 20 19 19 19 20 21 21 21 21 21 20 21 22 22 21 20 20 18 17 17 17 17 17 16 14 14 14 14 14 12 11 12 12 9 10 11 9 7 8 8 7 8 7 7 6 6 6 7 7 7 7 8 10 12 14 17 20 21 20 20 21 21 20 19 18 19 19 18 18 17 18 18 19 20
3 5 6 7 8 10 13 17 18 19 20 21 21 20 20 19 20 20 21 22 21 21 23 25 24 22 22 22 20 20 19 19 19 19 18 16 15 16 16 17 15 13 13 14 10 11 14 12 9 8 9 8 8 8 7 7 8 9 10 10 9 9 10 11 13 14 16 19 21 21 21 21 21 20 18 18 20 20 19 19 18 18 19 19 20
5 5 4 4 6 7 9 11 12 12 14 16 18 20 20 19 20 22 22 23 23 24 26 26 24 22 23 23 22 22 22 22 21 20 19 18 16 16 17 18 18 15 15 15 12 14 16 14 11 11 11 10 10 10 10 10 11 11 12 13 13 13 14 15 16 17 17 19 21 22 22 21 20 20 19 18 18 19 20 21 21 20 21 20 19
7 7 5 3 3 5 6 6 7 8 10 12 14 16 17 17 19 22 24 24 25 27 28 28 24 22 22 22 22 25 25 23 22 21 20 20 19 18 18 19 19 17 16 15 15 17 17 16 14 13 13 12 12 12 12 12 13 13 14 15 16 16 17 17 17 18 19 20 21 21 21 20 19 20 20 18 17 18 20 21 22 20 19 18 17
7 5 5 4 3 2 0 2 3 4 6 7 9 10 11 12 14 18 22 23 24 25 26 28 26 23 24 25 26 28 27 25 22 21 22 23 22 21 20 20 19 19 18 17 17 18 17 16 15 15 14 14 13 13 13 14 14 15 15 16 17 18 18 19 19 19 19 19 20 20 20 19 19 20 19 18 18 18 17 18 20 20 19 21 23
6 4 4 3 2 2 1 1 3 3 3 3 5 6 6 7 8 12 16 18 19 19 21 24 25 24 25 26 26 27 27 25 24 24 25 25 24 23 21 20 20 20 20 19 18 18 17 16 16 16 15 14 14 14 15 15 16 17 17 18 19 20 20 21 21 21 21 21 21 21 21 21 20 20 19 18 18 19 19 20 23 24 26 27 29
3 3 3 1 2 1 1 2 3 3 3 4 5 6 7 8 9 10 11 12 14 15 16 20 22 23 24 24 24 25 24 24 26 28 29 30 28 24 22 22 21 20 20 20 19 18 18 17 17 17 16 15 15 16 17 17 18 19 20 20 21 21 21 21 21 21 22 23 23 23 24 24 24 22 21 21 21 22 22 23 25 26 27 28 29
0 1 1 1 2 2 2 3 3 3 4 5 6 7 7 9 10 11 13 13 14 14 14 15 17 18 20 21 22 24 24 24 25 28 31 33 29 24 23 24 23 21 20 20 19 19 18 17 17 17 18 17 17 17 18 19 20 21 22 22 22 22 22 23 23 23 23 24 25 25 26 28 27 25 24 23 21 21 21 22 22 23 23 24 26
1 1 1 1 2 3 3 4 4 5 5 5 6 7 7 8 9 11 12 14 15 16 15 15 16 16 16 17 18 20 23 24 25 26 28 30 27 25 25 26 25 22 21 20 19 19 18 18 17 18 18 19 19 19 19 20 21 22 23 23 24 24 24 25 25 25 26 26 27 27 27 28 28 27 26 26 25 25 25 25 25 24 24 24 25
2 1 2 2 2 4 4 5 5 5 6 6 7 8 8 8 9 10 12 13 14 16 17 16 17 18 18 19 18 19 22 23 23 23 25 27 27 27 27 27 26 24 22 22 21 20 20 20 19 19 20 20 20 20 21 21 21 21 22 23 25 26 26 27 27 28 28 29 30 30 29 28 28 28 27 27 30 32 32 32 32 31 32 31 32
2 2 3 3 4 5 5 6 6 6 6 7 8 9 9 9 10 11 12 13 13 14 16 16 18 19 21 22 21 20 23 23 20 19 22 26 29 28 27 28 28 25 24 24 24 23 22 22 21 20 20 20 21 21 21 21 20 21 22 23 25 26 27 28 28 29 30 30 31 32 30 29 29 28 26 25 28 31 32 34 35 36 37 38 39
3 4 5 5 5 6 6 6 7 7 8 8 9 10 10 11 11 12 12 13 13 14 15 16 18 19 21 23 22 21 22 22 20 18 20 24 27 27 27 28 28 27 27 28 27 26 25 23 22 21 21 22 23 23 23 22 22 23 24 26 27 27 27 27 27 28 29 30 31 32 32 31 30 29 27 25 26 28 29 31 33 34 37 39 42
5 5 6 6 7 7 7 8 8 9 10 10 10 11 11 11 12 12 13 14 14 14 15 16 18 19 21 22 23 23 23 22 22 22 21 23 25 26 27 29 28 28 29 29 27 25 23 22 22 22 22 22 23 24 23 23 24 26 27 28 28 28 28 28 28 28 27 28 29 31 32 31 31 31 30 30 31 32 33 36 36 36 39 42 44
6 6 7 7 8 8 8 9 10 11 11 11 12 12 12 12 13 13 14 14 14 14 15 16 17 18 20 22 23 24 23 23 24 23 23 24 25 26 27 27 26 27 28 26 24 22 20 20 21 21 21 22 23 23 24 25 26 28 29 30 30 31 31 30 30 29 27 27 28 29 30 31 32 33 32 31 32 32 34 37 38 37 39 42 44
7 8 9 9 9 9 10 10 11 12 12 13 13 14 14 14 14 14 15 15 15 15 15 16 16 18 20 22 23 24 23 22 23 22 22 23 24 24 23 22 22 23 22 19 17 16 15 15 17 18 19 21 23 25 26 27 28 29 30 31 32 33 33 32 31 30 30 30 31 31 32 32 32 33 33 32 30 28 29 33 33 33 36 38 39
10 10 11 10 11 11 11 12 12 13 14 15 15 16 16 16 16 15 15 15 15 15 15 16 18 20 22 23 24 25 24 22 22 21 21 22 22 20 19 20 20 20 18 15 14 13 12 12 14 17 18 21 24 26 26 28 28 29 31 32 34 35 35 34 34 34 35 35 36 36 35 34 34 34 34 34 33 31 31 33 32 32 35 36 35
12 13 13 13 14 14 14 14 14 14 15 15 15 16 16 16 16 15 15 15 14 14 16 19 20 21 22 22 23 24 24 22 21 20 19 19 20 20 21 22 22 22 21 20 18 17 15 16 18 20 19 21 23 25 26 27 28 30 32 34 36 36 36 36 37 37 38 39 40 40 39 39 38 38 37 37 37 36 36 36 35 34 35 36 34
14 15 15 15 15 15 15 15 15 15 15 15 16 16 15 15 15 14 14 14 14 15 19 22 23 23 23 22 21 21 21 19 18 17 17 18 20 21 22 24 25 24 22 20 19 18 17 17 19 20 19 21 23 25 27 29 31 33 34 35 36 37 37 39 39 39 40 41 41 40 40 39 38 37 36 35 34 33 33 33 34 33 33 33 33
16 16 16 16 16 17 17 18 18 18 18 18 18 18 17 15 15 15 15 14 14 17 21 23 24 24 24 22 19 17 17 17 16 16 17 18 20 22 22 24 24 22 20 18 18 18 17 17 19 20 21 23 26 27 29 31 32 34 35 35 36 36 36 36 36 36 37 36 36 35 34 32 32 30 29 29 28 27 26 26 27 28 29 29 30
17 18 18 18 18 18 19 18 18 19 19 18 18 18 18 17 16 16 16 15 15 18 22 22 22 22 21 19 17 16 16 15 15 15 15 16 18 20 20 20 20 19 18 17 17 17 17 17 19 21 23 25 27 27 29 30 31 32 31 30 29 29 29 29 29 29 30 29 29 29 28 27 26 26 25 24 23 22 22 23 23 24 26 27 28
19 19 19 20 19 18 17 17 16 17 17 17 17 18 19 19 18 17 16 15 17 20 22 22 20 19 18 17 16 16 17 16 15 14 14 14 15 16 16 15 15 15 15 15 16 17 17 17 19 22 23 24 25 26 27 27 26 25 23 23 23 23 23 23 23 24 25 25 24 25 25 24 24 24 23 22 21 21 20 21 22 23 25 26 26
19 20 20 20 19 18 18 18 18 18 18 18 18 18 18 19 18 17 16 18 20 22 22 20 18 18 17 17 17 18 18 16 14 13 12 12 12 11 11 11 11 12 12 13 14 15 16 18 19 20 21 23 24 23 23 21 20 20 20 20 20 20 20 21 21 22 23 23 23 24 25 25 24 25 24 23 22 22 22 22 22 23 25 27 28
20 20 21 21 20 20 21 21 21 21 20 19 19 19 19 19 18 18 19 21 22 21 20 20 19 18 17 18 19 19 16 14 11 9 9 8 8 8 8 7 8 9 10 11 13 14 15 16 18 20 22 22 21 19 18 18 18 18 17 17 18 18 19 20 21 22 24 25 25 27 28 28 28 27 26 26 25 25 25 25 24 24 24 26 28
21 21 22 22 22 22 22 22 22 21 20 20 19 18 19 20 20 21 22 22 21 20 20 20 20 18 18 19 18 15 13 11 9 8 7 7 7 7 5 5 6 7 9 11 13 14 16 18 20 21 19 16 14 14 16 16 17 17 17 16 16 17 18 19 21 22 24 25 27 28 28 28 28 27 27 27 27 27 26 26 27 26 25 25 28
21 22 23 23 23 23 23 23 24 23 22 21 21 21 22 23 22 21 20 19 20 20 21 20 19 19 19 17 14 14 13 11 9 8 7 5 5 5 5 5 6 8 11 13 14 16 18 18 17 15 12 12 13 14 15 15 15 17 17 17 17 18 18 19 21 22 23 24 25 27 27 27 28 28 28 29 29 29 27 27 27 28 27 26 28
20 22 24 24 24 24 24 25 25 23 22 24 25 25 24 23 21 19 17 17 18 19 19 18 16 15 15 15 16 16 15 13 10 7 4 4 6 7 7 7 7 9 12 13 14 15 15 13 12 12 12 13 15 15 15 15 17 18 18 19 20 21 21 22 23 24 24 25 26 28 29 30 31 32 32 33 33 32 31 30 30 30 29 29 31
21 23 23 22 24 25 26 25 22 21 24 26 26 24 22 20 19 18 17 17 17 16 15 15 16 17 17 18 17 15 14 13 10 7 5 5 5 5 5 5 6 7 9 11 12 11 10 10 12 13 13 15 16 16 16 17 18 20 21 22 23 24 24 24 26 27 27 27 28 29 30 31 32 33 34 35 35 34 33 32 32 31 31 32 33
25 24 24 25 27 28 27 25 24 24 25 25 24 24 22 19 15 13 13 14 14 14 15 17 19 18 18 18 17 15 13 12 10 7 4 2 0 1 2 3 5 8 12 15 13 10 10 11 13 14 15 15 16 16 18 19 21 23 24 24 25 26 27 28 29 29 30 30 30 30 30 31 31 31 32 33 33 34 33 33 32 32 33 33 35
22 22 22 23 24 23 20 19 21 23 22 20 20 21 21 18 15 15 15 15 15 15 15 17 17 16 16 16 15 14 12 10 7 4 3 4 5 6 7 8 10 14 17 18 16 13 11 12 14 15 15 16 16 18 19 21 23 23 24 26 27 28 29 29 29 30 30 31 32 32 31 30 30 29 30 30 31 31 31 31 31 32 32 33 34
16 15 15 14 13 12 11 13 16 17 17 16 17 18 19 21 23 24 22 20 18 17 17 17 16 15 15 14 12 12 10 7 5 5 8 10 10 10 11 12 13 14 16 17 17 15 13 14 16 16 16 16 17 19 21 21 22 23 24 26 28 29 29 29 29 30 31 31 31 31 30 29 28 29 30 30 30 31 31 31 31 31 31 32 32
4 3 3 1 2 5 8 11 14 16 18 19 21 23 25 26 28 27 25 23 20 19 18 17 16 15 14 12 11 9 7 6 6 8 11 12 12 10 10 11 12 13 14 16 16 13 14 17 18 16 16 16 18 20 20 20 20 22 24 26 28 29 29 29 29 30 30 30 30 30 29 28 29 29 30 30 30 30 30 30 30 30 31 32 32
7 9 8 10 13 16 18 21 22 23 25 25 25 26 27 26 25 24 23 22 21 20 19 18 16 14 12 10 8 8 8 8 8 10 11 12 13 12 10 10 11 11 12 13 12 12 16 17 16 15 16 17 18 19 20 20 22 24 27 29 30 30 29 28 28 28 29 29 29 29 28 28 28 27 28 29 29 29 30 30 29 30 30 31 31
12 12 11 12 15 18 21 23 24 24 25 25 25 24 24 22 22 22 21 21 20 18 17 15 13 12 10 9 8 8 9 10 10 10 11 11 12 12 12 11 10 10 10 9 11 13 15 15 14 15 17 17 18 19 21 22 25 27 29 31 31 30 29 28 28 28 28 29 28 28 27 27 26 26 27 28 29 29 30 29 29 29 29 29 30
15 14 13 14 18 20 21 21 22 23 25 25 24 23 22 22 22 21 20 19 17 15 13 12 11 10 9 8 7 8 9 10 9 9 10 10 9 10 12 10 10 11 10 10 12 13 13 13 15 16 17 17 18 20 22 24 27 29 29 30 30 28 28 27 27 27 28 28 28 27 27 26 26 25 26 28 28 28 28 28 28 28 28 27 28
11 10 11 14 17 18 19 21 22 24 24 22 20 20 19 19 18 17 16 16 14 12 10 9 7 6 5 5 5 6 8 9 7 7 9 9 8 9 9 8 9 11 10 10 12 13 13 13 14 15 16 17 19 22 24 26 28 30 30 30 30 28 27 27 26 27 27 28 27 27 26 25 25 23 23 25 25 25 25 25 25 25 26 26 27
10 9 10 12 13 14 17 20 20 19 18 16 15 15 16 16 15 14 13 11 9 8 7 8 7 4 2 3 5 3 5 8 8 6 7 7 5 8 9 9 9 11 10 10 12 13 12 13 14 14 15 18 21 23 25 27 29 31 31 30 30 29 28 27 28 28 28 28 27 26 25 25 23 22 22 22 22 23 23 22 22 22 23 24 24
13 14 14 15 15 15 15 15 14 13 14 14 13 13 13 12 12 11 10 8 7 8 9 9 7 4 2 3 4 1 2 5 6 4 3 3 6 9 10 10 10 11 11 12 13 13 12 12 13 14 16 20 23 25 27 29 31 32 31 29 30 29 29 29 29 28 28 28 27 26 25 24 23 22 21 20 20 20 20 20 20 19 19 20 20
16 17 16 16 16 14 13 12 12 12 12 12 11 10 8 9 10 10 10 10 10 9 6 4 3 3 3 3 3 1 3 4 4 3 3 6 7 7 8 9 9 11 13 13 13 13 13 13 14 16 18 22 24 27 29 31 31 30 29 28 29 29 29 29 29 29 29 28 27 26 25 23 21 20 19 18 17 17 17 17 17 16 16 16 15
18 18 16 15 15 13 12 11 11 10 10 12 12 9 8 9 11 12 12 11 10 7 4 1 2 3 4 4 2 3 6 4 3 4 4 5 6 6 7 8 9 11 13 12 12 13 14 14 15 17 19 22 26 28 31 31 30 28 27 28 28 29 30 30 30 30 29 28 26 25 23 22 20 18 17 16 15 14 14 14 15 14 14 14 13
21 19 17 15 13 12 11 11 11 10 9 10 10 8 7 9 9 8 7 6 4 3 0 2 4 5 7 6 3 6 7 3 3 4 4 3 5 6 8 9 11 12 12 11 11 13 14 16 17 19 21 23 26 29 32 31 29 27 27 28 29 30 31 32 32 31 29 27 25 23 22 20 19 18 16 14 13 12 12 13 13 14 14 14 13
23 21 18 15 11 10 11 12 10 8 6 6 7 7 7 7 6 5 4 2 1 1 1 3 2 5 7 7 5 5 5 2 1 4 4 3 4 7 9 10 11 12 12 11 12 13 15 17 20 22 23 25 27 30 32 30 28 28 28 29 30 31 32 32 32 31 28 25 24 23 21 19 19 18 16 13 11 11 12 12 12 12 12 12 12
22 18 13 10 8 8 9 10 8 5 4 4 6 7 6 5 4 4 3 2 2 2 3 5 6 6 4 2 2 3 1 1 2 3 5 4 5 8 10 10 10 11 11 11 12 14 16 19 21 23 25 27 29 31 31 31 30 30 30 30 31 32 32 32 31 29 26 24 24 22 21 20 19 18 16 13 11 11 11 11 10 9 9 9 9
19 12 8 8 10 10 9 9 8 5 3 4 5 6 5 5 4 4 3 2 3 4 5 8 7 4 1 1 2 2 3 5 4 3 4 5 6 9 10 10 10 11 11 11 12 13 16 19 22 24 26 29 31 32 32 32 32 32 31 31 31 31 30 30 29 27 26 25 24 22 21 20 18 18 16 13 11 10 10 8 7 6 5 4 5
15 11 9 11 12 11 9 8 7 4 2 3 5 6 5 5 5 4 4 4 4 4 6 6 3 2 2 0 2 1 2 4 4 4 3 4 7 9 10 11 11 11 11 11 11 13 16 20 23 25 26 29 31 33 33 33 32 32 31 31 31 30 29 29 28 27 26 25 24 22 21 19 18 17 17 14 12 10 8 6 5 4 3 1 2
16 14 15 14 12 10 8 6 4 5 5 6 6 6 6 6 6 5 5 6 7 6 6 5 2 2 1 1 2 3 3 4 4 4 3 4 6 9 10 10 11 11 11 10 11 12 16 19 23 24 25 28 31 33 33 32 32 31 30 31 32 31 29 28 28 27 26 25 24 23 21 19 18 18 17 15 13 12 9 7 7 6 4 3 3
16 14 14 12 10 9 7 5 6 8 8 6 5 5 5 5 5 4 4 5 6 5 5 4 2 2 2 2 2 4 5 5 4 4 3 4 6 8 9 10 11 11 11 10 10 12 15 19 22 23 24 26 30 32 32 32 32 31 29 30 32 32 31 30 29 28 26 25 24 23 22 20 18 17 16 15 14 13 11 9 7 7 6 5 5
14 12 11 10 10 10 9 8 8 10 9 7 6 5 4 4 4 3 2 3 4 3 2 3 3 2 3 2 2 3 4 5 5 3 2 4 5 7 8 9 10 11 11 10 10 12 15 18 21 22 22 24 27 29 30 31 32 31 29 28 29 31 32 31 30 29 28 26 24 23 22 21 20 18 17 15 14 13 11 9 7 6 6 6 7
12 12 12 11 11 10 9 8 8 9 10 9 7 5 3 2 3 3 1 1 0 0 1 1 1 1 2 2 2 3 3 4 5 3 3 3 5 7 8 8 9 11 11 10 9 11 14 17 20 21 21 22 24 26 28 30 31 31 30 28 27 29 32 32 32 31 30 28 25 23 21 20 20 20 18 16 14 13 11 9 7 6 6 7 8
Wind_Direction
182 173 170 171 175 182 191 196 200 204 207 206 205 212 223 229 229 225 228 240 245 243 251 259 264 268 270 270 270 273 278 280 277 278 274 266 264 261 268 278 273 282 297 309 325 331 349 9 22 52 43 30 24 18 23 13 359 4 0 356 0 352 338 328 314 312 320 322 314 313 315 313 310 307 302 299 298 295 292 289 287 289 291 292 291
194 187 182 181 182 187 196 205 214 221 224 221 219 223 227 232 239 237 230 233 240 244 249 255 259 258 257 259 259 258 264 268 269 270 269 266 264 256 261 272 262 251 267 283 293 296 297 288 289 316 351 6 7 7 14 15 12 21 350 323 321 314 305 302 300 302 311 321 323 321 324 322 316 313 310 307 306 305 304 304 302 300 300 299 294
190 188 194 202 203 206 215 224 230 233 232 227 228 233 234 237 243 244 239 237 237 239 243 249 253 253 249 250 247 244 248 254 258 262 262 259 261 259 259 268 269 253 253 266 274 276 278 268 262 284 308 322 337 350 355 3 14 14 332 304 303 304 304 303 302 304 310 317 320 321 322 319 310 308 308 303 301 302 304 305 304 302 304 305 302
191 191 205 218 222 223 227 232 233 231 229 226 229 234 237 243 250 249 247 248 245 239 237 242 247 248 245 245 243 240 242 246 249 254 256 253 252 254 258 265 270 260 250 255 255 252 261 268 271 282 296 308 320 331 336 342 345 329 320 321 315 305 299 295 295 297 298 303 308 310 309 308 308 312 313 306 301 300 300 299 295 293 294 293 292
130 178 206 222 225 225 227 233 236 233 231 230 231 231 230 234 243 245 245 251 256 252 245 243 245 244 241 242 243 240 240 243 246 249 254 254 244 243 251 261 268 263 250 250 243 230 243 258 264 268 280 292 300 306 309 310 312 312 315 320 317 306 297 293 293 295 294 297 302 306 306 306 308 311 310 305 303 302 300 298 294 291 290 287 285
126 132 150 181 195 206 218 233 245 246 244 244 240 235 232 232 237 241 241 243 248 250 246 243 243 242 241 242 244 244 242 242 243 246 252 255 249 242 244 252 261 259 247 245 238 225 234 250 257 258 266 275 283 288 292 295 299 306 312 315 316 313 310 308 307 306 304 302 303 305 308 308 307 306 306 304 301 300 300 299 297 297 298 298 298
104 113 114 123 167 194 220 240 250 250 250 253 251 247 245 246 247 247 246 245 244 245 246 249 253 254 252 250 250 250 246 241 240 243 247 250 250 247 244 247 253 252 244 239 233 230 236 247 253 259 265 270 276 282 286 291 296 303 309 311 313 312 312 312 309 306 303 301 301 302 303 303 301 301 304 302 296 292 293 294 296 300 300 297 293
102 110 110 101 116 135 212 285 278 266 257 258 264 263 260 260 260 257 254 253 252 251 252 256 259 259 256 255 256 254 250 243 240 240 242 246 248 248 248 249 248 246 242 236 230 234 241 245 250 259 265 271 277 281 286 292 296 300 304 305 307 307 307 308 306 304 302 299 298 298 297 296 293 293 297 299 296 293 291 288 287 287 283 278 277
113 112 109 120 182 151 115 274 287 305 306 301 301 300 292 282 277 268 262 261 264 265 263 261 259 256 254 254 256 256 253 248 245 241 240 242 243 244 248 250 246 241 239 235 232 235 241 247 256 264 270 277 283 285 288 291 293 297 300 301 302 302 304 305 305 305 302 296 294 293 289 287 287 287 288 288 286 285 282 278 277 277 277 278 280
118 122 121 163 246 247 227 263 280 291 284 278 280 286 288 288 286 280 276 274 273 272 268 263 260 260 259 257 253 252 250 248 246 242 238 239 241 245 249 248 243 238 234 234 234 236 242 253 265 274 279 283 286 287 290 291 293 296 298 298 300 300 300 301 301 301 299 296 294 291 287 285 283 281 280 279 280 281 281 281 282 283 284 285 285
18 95 141 224 275 299 283 272 277 272 265 265 268 270 273 279 285 290 290 284 278 274 269 266 266 265 264 261 255 253 252 251 249 244 240 240 242 244 245 244 242 238 232 232 236 240 249 260 271 279 283 285 287 288 289 290 292 294 296 297 298 298 300 301 301 301 299 296 294 292 289 287 285 282 280 279 277 275 275 275 276 278 281 283 286
58 62 342 300 303 297 282 271 265 261 260 261 264 266 264 264 268 275 283 285 283 281 276 274 276 274 270 266 261 259 259 257 256 250 243 241 242 242 242 242 241 235 227 229 237 245 256 268 275 278 280 283 289 291 291 291 292 292 294 296 298 300 303 303 304 304 302 299 296 293 290 288 286 283 281 278 273 270 268 267 267 268 270 272 276
356 348 321 316 292 280 279 279 277 273 270 268 263 262 263 262 259 255 259 268 275 277 275 271 268 268 269 267 263 261 262 261 258 251 245 242 242 243 245 242 236 228 224 231 242 251 261 270 273 274 277 282 288 291 294 296 297 296 296 298 300 302 303 303 304 304 303 300 297 295 294 292 289 287 285 279 275 272 271 269 267 267 267 267 268
305 301 300 298 288 285 284 281 278 274 274 274 271 269 267 265 264 259 254 255 259 266 270 269 264 262 263 266 264 260 261 264 263 254 250 246 241 243 248 244 233 227 231 243 252 257 262 267 269 271 276 282 286 289 292 294 294 295 296 296 297 298 298 299 300 300 298 296 294 294 294 293 291 291 289 282 277 275 274 273 272 270 268 268 267
286 284 286 288 288 292 289 281 277 272 270 271 270 270 271 270 270 268 264 262 260 260 263 265 267 267 266 268 267 261 257 262 265 260 254 249 244 246 250 245 238 238 244 252 257 260 262 265 268 272 278 283 285 287 289 290 293 295 295 293 293 293 294 296 296 295 293 291 290 291 292 292 291 290 289 285 281 279 278 277 276 275 274 273 272
285 286 286 288 292 294 289 282 279 277 276 277 275 274 275 275 274 273 272 270 267 264 262 261 263 265 266 267 265 259 256 257 259 259 254 249 248 247 243 241 243 247 249 252 256 259 263 268 272 278 284 286 286 287 290 293 296 296 294 294 295 296 296 297 298 296 292 288 287 287 288 288 286 284 282 280 278 277 276 275 274 275 275 276 275
286 286 285 287 289 288 285 282 281 281 282 282 282 282 281 277 275 274 273 273 271 269 268 266 264 264 264 264 261 258 257 256 257 257 254 250 247 243 238 239 245 247 247 251 257 262 268 274 279 283 287 287 287 291 295 297 297 296 296 298 300 300 301 302 302 299 293 289 285 282 280 279 278 278 277 275 274 274 275 275 275 276 276 276 276
282 282 283 285 284 281 280 279 279 278 278 277 278 278 278 277 276 274 272 272 272 271 269 269 269 266 262 259 257 256 256 257 257 255 251 248 244 240 240 245 248 247 248 254 260 266 271 276 281 285 288 290 291 294 296 297 296 297 299 300 300 300 302 303 301 296 292 289 286 283 281 280 278 277 277 276 275 273 273 275 278 280 279 277 278
276 278 279 280 280 278 276 275 275 274 273 274 274 273 274 274 273 272 270 269 270 273 273 269 264 262 259 255 254 254 255 256 257 252 246 242 239 239 247 251 246 241 240 239 239 243 249 259 271 278 282 286 288 290 291 292 293 294 295 296 296 297 299 299 297 295 294 291 289 287 285 281 279 277 277 277 277 274 272 274 276 278 278 279 280
271 275 278 278 279 280 279 276 275 274 273 273 271 271 273 274 272 269 268 267 268 270 268 263 259 259 260 258 254 255 257 257 255 251 245 241 240 245 253 252 241 233 230 228 230 239 252 267 276 279 281 283 285 286 286 287 289 290 291 292 293 294 295 294 294 293 292 289 288 286 284 282 280 279 278 277 276 274 272 272 272 273 275 277 278
272 275 276 278 279 280 279 277 274 272 270 269 268 269 268 267 265 266 266 265 266 265 261 259 257 258 260 262 260 258 258 257 255 251 248 245 246 252 255 248 237 232 232 236 245 259 271 279 281 281 279 277 277 279 282 284 285 286 287 288 289 291 292 292 292 291 289 288 288 287 286 285 284 284 283 281 279 277 274 272 272 271 271 273 275
274 275 275 275 276 275 274 273 272 271 269 268 267 266 262 260 262 265 263 260 261 263 261 259 258 258 260 262 261 258 256 256 256 255 252 249 250 253 250 241 234 235 242 251 262 272 277 278 277 277 276 275 276 279 282 284 285 286 287 288 289 290 292 292 292 291 290 291 291 291 291 291 290 290 289 287 285 282 277 272 269 268 266 266 269
276 276 275 275 276 277 276 274 273 273 272 271 268 264 262 263 264 262 260 257 255 258 260 260 259 258 257 256 255 255 256 258 259 258 254 249 248 246 240 234 236 244 254 263 270 274 276 274 273 274 277 280 283 286 287 288 289 290 291 292 294 295 296 296 298 298 298 298 297 297 298 299 300 301 299 295 291 286 279 272 269 270 270 267 265
279 278 277 278 279 279 278 277 276 275 273 271 267 266 266 266 263 261 260 254 251 253 256 256 254 253 253 254 258 262 263 261 256 248 242 237 236 235 234 236 244 254 262 269 272 274 276 276 276 278 281 285 288 290 292 295 298 301 303 304 305 305 306 306 309 311 309 306 302 300 301 303 306 307 305 301 297 291 283 275 269 267 269 269 266
280 277 277 277 277 277 276 276 276 276 275 272 267 266 268 266 262 257 252 248 250 253 251 246 244 250 258 265 270 270 264 254 239 227 222 221 224 232 239 246 253 260 266 271 274 277 278 279 281 286 291 294 297 299 302 307 312 313 313 313 312 311 311 312 313 313 310 304 299 298 299 300 302 303 304 302 297 291 289 284 275 268 265 265 264
276 275 275 275 275 276 277 277 277 277 276 273 269 266 264 262 256 249 248 251 251 245 238 238 244 254 265 270 268 260 245 227 212 203 203 209 218 229 239 248 257 262 265 271 276 282 287 293 298 300 301 302 308 314 319 321 321 316 314 315 315 313 313 313 312 310 307 303 301 300 299 299 299 298 298 296 291 288 289 288 283 277 273 270 268
276 276 276 276 275 275 276 277 277 276 274 272 270 265 260 256 254 251 251 251 244 234 234 244 252 260 266 261 248 228 204 184 177 182 191 200 208 213 221 243 262 272 281 289 295 301 305 306 303 300 301 308 317 320 319 318 316 311 309 308 306 306 306 304 303 301 300 299 299 299 299 299 298 296 294 292 289 287 286 285 282 280 278 276 273
274 272 271 270 271 271 271 270 270 271 272 269 263 258 255 255 254 252 248 245 244 244 247 252 255 257 252 234 203 177 165 163 173 183 189 202 222 234 251 266 272 280 289 295 299 301 301 300 301 306 317 324 320 312 308 306 303 301 300 300 301 302 302 300 299 300 298 296 295 294 293 293 292 291 290 288 288 287 285 282 280 277 276 276 275
268 268 268 269 269 269 268 267 267 268 267 262 256 253 254 253 249 246 244 246 251 253 251 245 237 229 212 186 166 162 168 173 179 183 192 225 240 247 259 266 269 276 284 291 295 299 303 313 328 338 333 318 309 306 303 299 299 300 301 304 307 309 308 306 304 303 301 297 293 291 290 288 287 286 286 285 285 286 285 282 280 277 275 273 272
270 271 271 269 266 264 263 263 264 261 257 256 254 253 252 250 247 249 253 253 245 237 226 206 185 174 168 165 165 170 173 175 182 196 214 227 231 242 259 270 280 292 308 318 320 324 340 350 342 330 318 309 308 309 306 304 306 308 308 309 311 311 310 307 304 303 302 299 296 294 294 293 291 290 289 289 288 288 287 285 283 280 277 275 273
279 278 274 269 267 267 265 262 260 257 254 253 253 249 243 238 233 231 229 220 205 190 182 174 163 158 161 165 167 170 172 176 183 191 197 194 154 319 315 327 337 346 354 357 356 2 7 350 330 320 318 316 315 313 310 309 312 313 312 312 313 313 311 309 307 305 304 303 302 302 301 300 298 295 294 293 292 291 289 287 285 282 278 276 275
288 286 282 280 280 280 274 260 252 250 246 240 235 232 225 207 179 162 162 162 154 146 148 153 154 159 166 169 167 167 169 169 162 137 78 47 36 33 30 21 9 5 6 6 7 11 2 336 321 320 322 321 318 315 312 311 312 313 311 309 310 312 313 312 310 308 306 306 306 306 306 304 302 300 298 297 295 292 290 288 286 283 281 278 275
296 293 292 292 291 284 263 236 225 222 215 203 192 188 185 171 153 143 141 141 140 139 142 147 155 164 167 166 162 159 153 143 119 72 48 41 43 47 42 26 11 6 5 3 6 9 352 327 320 322 324 322 318 314 312 311 310 310 308 308 310 313 313 312 311 308 307 308 308 307 307 306 305 303 301 299 297 294 291 289 287 283 281 279 276
331 6 3 26 121 144 154 160 162 158 153 150 148 147 148 146 142 140 141 143 143 144 144 148 156 160 156 151 147 138 122 99 73 52 41 40 45 50 49 35 17 2 357 1 5 357 328 316 320 325 323 320 317 315 317 319 316 314 315 316 316 315 313 311 311 310 310 311 310 310 309 308 307 304 301 299 298 296 294 291 289 285 281 279 278
95 89 97 107 110 115 121 126 128 129 130 133 135 137 138 138 139 142 144 145 145 144 144 145 147 145 139 129 116 98 81 67 55 42 34 37 40 38 38 37 20 358 352 359 352 326 311 315 324 327 323 320 322 326 329 330 326 322 321 321 319 317 316 316 316 315 315 315 314 313 312 310 307 305 302 299 298 297 295 293 291 287 284 281 278
95 94 107 119 120 121 124 125 125 128 131 132 131 132 134 136 139 140 140 140 139 136 135 136 131 122 110 95 83 79 70 57 47 38 32 34 34 28 28 28 10 345 338 338 321 310 314 323 324 324 326 329 332 334 334 331 327 324 322 321 320 320 320 321 321 320 319 318 318 317 316 313 310 307 304 301 298 297 295 294 292 290 286 283 279
100 100 106 112 114 115 117 118 120 123 125 125 125 126 130 132 132 131 128 125 121 114 113 117 113 103 92 76 71 82 76 57 45 41 37 32 25 23 24 17 348 328 329 330 320 317 324 326 323 327 334 337 337 335 334 332 330 328 325 324 324 323 323 324 324 323 322 322 322 321 319 315 313 310 305 301 298 296 295 293 292 290 288 286 283
114 115 121 117 109 105 110 116 117 116 116 115 116 120 122 120 118 117 116 113 105 95 97 104 98 88 80 58 58 84 80 53 35 37 41 35 20 9 8 353 328 326 334 335 325 320 323 326 327 332 338 340 339 337 336 335 333 330 329 329 328 327 327 327 328 328 327 325 325 324 322 318 316 312 307 302 298 296 295 293 292 290 290 288 285
123 137 150 143 130 121 119 119 115 111 112 115 118 120 119 115 111 109 108 106 101 97 111 127 129 126 108 30 20 45 66 47 34 40 51 42 355 330 335 339 335 335 335 327 319 321 329 335 334 337 343 346 345 343 341 339 335 332 332 332 331 331 332 332 331 331 330 329 328 328 325 322 319 315 309 304 300 298 296 294 290 290 291 290 287
139 146 145 138 138 138 133 127 124 124 125 125 122 121 123 125 124 117 108 109 125 134 137 137 128 111 68 10 354 335 100 63 42 38 42 358 317 319 339 352 346 333 324 320 322 329 338 340 340 346 353 352 349 346 344 341 337 335 335 336 336 336 336 336 334 334 333 332 332 330 328 326 323 318 312 307 302 300 297 291 287 288 291 292 289
150 144 132 127 134 138 133 129 130 133 134 130 122 118 126 139 144 137 123 113 112 111 108 102 66 23 349 333 329 323 120 81 27 348 322 316 319 336 356 353 334 320 320 327 336 341 344 347 352 359 359 354 350 349 345 340 338 338 339 341 340 340 340 340 339 338 337 336 335 333 330 328 324 318 313 309 306 301 293 287 284 286 290 291 287
150 137 127 130 136 133 127 123 124 127 128 123 114 106 109 123 133 134 128 118 107 93 79 33 326 333 325 317 343 78 92 76 340 313 314 320 330 348 351 335 324 328 334 340 343 345 349 358 6 8 2 355 353 351 348 345 343 344 345 347 346 345 345 345 344 343 341 339 336 334 332 329 325 321 317 314 311 305 294 286 285 287 289 291 289
146 136 129 132 134 134 135 135 134 135 132 123 119 120 123 127 132 133 130 130 129 120 115 290 311 346 0 8 55 107 106 83 328 310 319 333 343 348 343 338 340 346 348 347 347 354 6 15 17 14 6 359 355 354 354 352 350 350 352 353 351 349 348 348 347 346 344 341 338 336 335 334 332 328 325 320 314 306 298 292 289 288 288 288 287
146 135 127 127 132 143 149 145 138 132 124 124 140 148 140 131 129 123 113 105 92 72 326 321 7 47 41 38 68 115 128 128 297 308 318 341 359 351 345 347 352 353 354 356 1 12 23 24 20 16 11 4 360 359 358 357 356 357 358 358 355 353 351 349 348 348 347 344 342 342 342 342 341 338 335 329 318 308 304 301 295 289 285 281 277
147 133 124 126 134 141 146 147 145 132 111 121 141 140 123 109 100 91 81 68 64 52 17 24 58 86 96 87 92 88 41 327 299 313 326 351 10 359 353 356 358 356 359 8 17 27 32 28 23 20 16 10 7 5 4 3 3 3 3 2 359 356 354 352 351 352 353 350 349 349 348 346 344 344 344 340 329 318 315 309 298 289 283 275 266
150 141 139 143 136 131 139 154 163 162 140 125 129 125 113 103 93 85 84 91 92 85 71 65 72 89 130 164 133 107 331 319 324 346 357 8 12 5 359 0 0 359 5 16 27 35 36 31 27 23 18 12 11 10 8 7 6 5 6 6 4 1 359 357 357 360 1 358 356 355 353 350 349 351 354 353 344 336 332 323 310 300 288 274 255
149 146 148 146 139 137 146 159 166 167 143 115 111 107 102 95 88 86 89 91 92 97 96 96 111 213 243 115 121 157 284 309 328 355 6 8 8 4 0 1 3 3 8 21 33 39 38 34 30 24 18 13 12 11 10 10 8 7 8 9 8 6 5 5 6 7 7 5 2 1 0 359 360 0 1 1 360 359 357 350 342 337 331 285 212
147 143 145 145 144 145 150 148 135 121 119 119 115 111 108 105 102 102 100 96 92 91 89 83 53 315 305 18 21 9 0 352 357 10 18 15 10 5 2 3 5 4 9 22 34 38 38 37 32 24 17 13 11 11 11 11 10 10 11 13 13 12 12 13 15 14 11 9 8 8 8 10 10 8 6 6 10 15 17 13 8 12 31 74 123
153 151 152 154 151 144 138 133 125 121 120 120 121 122 125 129 129 130 134 133 127 122 120 119 103 3 355 17 12 4 8 11 11 15 28 26 15 7 5 7 6 5 9 21 31 34 37 38 34 25 16 11 10 11 12 12 12 12 11 13 16 17 16 18 21 20 16 13 12 13 15 19 19 16 13 13 16 22 25 24 23 31 52 79 108
148 146 144 145 142 133 123 117 117 117 113 109 112 120 132 150 157 155 156 158 160 166 169 170 192 264 314 345 352 347 358 8 8 11 34 32 15 8 10 13 11 9 10 17 29 37 39 39 34 24 13 7 9 12 13 13 14 14 13 12 15 18 19 20 22 23 22 19 16 15 19 23 26 26 24 21 22 28 32 34 40 53 72 94 116
133 131 126 124 126 128 126 124 126 127 125 121 121 131 148 163 160 155 148 118 115 333 6 59 167 246 301 343 348 344 357 5 3 11 41 41 17 12 15 17 16 16 14 15 28 40 42 39 33 21 7 2 8 14 14 14 15 17 16 14 16 19 22 22 22 23 25 24 22 21 21 23 27 31 32 30 29 33 38 45 56 71 90 113 130
Height
1494 1495 1495 1497 1499 1501 1503 1506 1508 1509 1510 1512 1513 1514 1515 1515 1517 1518 1519 1520 1521 1521 1521 1521 1521 1521 1521 1521 1522 1521 1522 1522 1523 1523 1524 1524 1525 1525 1525 1526 1526 1526 1526 1527 1527 1528 1528 1528 1528 1529 1529 1530 1530 1530 1530 1530 1530 1530 1531 1531 1531 1531 1531 1530 1530 1528 1528 1528 1528 1527 1527 1527 1526 1526 1525 1525 1524 1524 1523 1523 1522 1521 1521 1520 1519
1493 1495 1496 1498 1499 1500 1502 1505 1507 1508 1509 1510 1511 1512 1513 1514 1515 1516 1518 1519 1520 1520 1520 1520 1520 1520 1520 1520 1521 1521 1521 1521 1521 1522 1522 1523 1523 1524 1524 1524 1525 1525 1525 1525 1526 1526 1527 1527 1527 1527 1528 1529 1529 1529 1529 1529 1529 1530 1530 1531 1531 1531 1530 1530 1529 1527 1526 1526 1526 1525 1525 1525 1524 1524 1523 1522 1522 1521 1520 1520 1519 1518 1518 1517 1517
1492 1493 1495 1497 1499 1499 1501 1503 1505 1507 1508 1509 1510 1512 1513 1513 1514 1515 1516 1517 1518 1518 1519 1518 1519 1519 1519 1519 1520 1520 1520 1520 1519 1520 1520 1521 1522 1522 1523 1523 1524 1524 1524 1524 1524 1524 1525 1526 1526 1526 1527 1527 1527 1528 1528 1528 1528 1528 1529 1529 1529 1529 1529 1529 1528 1527 1525 1524 1524 1523 1523 1523 1522 1522 1521 1520 1519 1519 1518 1517 1517 1516 1515 1515 1515
1492 1492 1494 1497 1498 1499 1500 1501 1503 1505 1505 1506 1508 1510 1512 1513 1513 1514 1515 1516 1516 1516 1517 1517 1517 1517 1518 1518 1518 1519 1519 1519 1518 1518 1518 1520 1520 1521 1521 1522 1522 1523 1523 1523 1524 1523 1523 1524 1525 1525 1525 1526 1526 1526 1526 1526 1527 1527 1527 1528 1528 1528 1528 1527 1527 1526 1525 1523 1522 1522 1522 1521 1520 1519 1519 1518 1517 1517 1516 1515 1515 1514 1514 1514 1513
1493 1494 1495 1496 1497 1497 1499 1501 1502 1502 1503 1504 1505 1506 1509 1511 1513 1513 1514 1515 1515 1516 1516 1515 1515 1516 1516 1517 1517 1518 1518 1518 1517 1517 1517 1518 1519 1520 1520 1520 1521 1522 1522 1522 1523 1523 1522 1522 1523 1524 1524 1524 1524 1525 1525 1525 1525 1526 1526 1526 1526 1526 1526 1526 1525 1524 1523 1522 1521 1520 1520 1519 1518 1517 1517 1516 1515 1514 1514 1513 1513 1512 1512 1511 1511
1494 1494 1495 1495 1496 1497 1499 1500 1501 1501 1502 1502 1503 1504 1505 1507 1510 1511 1511 1512 1512 1513 1513 1512 1512 1514 1515 1516 1517 1517 1517 1517 1517 1517 1517 1516 1517 1518 1519 1519 1519 1520 1520 1520 1521 1521 1521 1521 1522 1522 1522 1523 1523 1523 1523 1524 1524 1524 1524 1523 1523 1523 1523 1523 1523 1522 1521 1520 1519 1518 1517 1517 1516 1515 1515 1515 1514 1513 1512 1511 1510 1510 1509 1508 1507
1494 1495 1495 1496 1496 1497 1498 1499 1500 1500 1501 1502 1503 1503 1503 1505 1508 1510 1509 1508 1508 1509 1509 1509 1511 1513 1513 1514 1515 1515 1515 1516 1516 1517 1517 1516 1515 1516 1517 1517 1518 1519 1519 1519 1519 1519 1519 1519 1520 1520 1521 1521 1521 1522 1522 1522 1522 1522 1522 1521 1521 1521 1520 1520 1520 1519 1519 1518 1517 1516 1515 1515 1515 1513 1513 1513 1512 1511 1511 1509 1508 1507 1507 1506 1505
1494 1495 1495 1496 1496 1497 1498 1498 1498 1499 1500 1500 1501 1502 1502 1503 1506 1507 1506 1505 1505 1506 1507 1508 1509 1510 1510 1510 1511 1511 1512 1514 1515 1516 1516 1515 1514 1513 1513 1514 1515 1517 1517 1517 1517 1517 1517 1517 1518 1518 1519 1519 1520 1520 1520 1520 1520 1520 1520 1520 1519 1519 1518 1518 1517 1517 1516 1516 1515 1514 1514 1513 1513 1512 1512 1512 1511 1510 1509 1508 1506 1505 1505 1504 1503
1494 1495 1495 1496 1496 1497 1498 1498 1498 1498 1499 1499 1500 1500 1501 1502 1503 1503 1503 1502 1502 1502 1503 1504 1505 1506 1506 1507 1507 1508 1509 1512 1514 1515 1515 1514 1513 1512 1511 1511 1512 1514 1515 1515 1516 1515 1515 1515 1516 1516 1517 1517 1518 1518 1517 1518 1518 1518 1518 1517 1517 1516 1516 1515 1515 1514 1514 1513 1512 1512 1511 1511 1511 1511 1510 1510 1509 1508 1507 1506 1504 1503 1502 1501 1500
1493 1494 1495 1495 1496 1496 1497 1497 1497 1498 1498 1499 1499 1500 1500 1501 1501 1501 1501 1500 1500 1500 1501 1501 1502 1502 1503 1503 1505 1505 1506 1509 1511 1512 1512 1512 1511 1511 1510 1510 1510 1511 1512 1513 1514 1513 1513 1513 1514 1514 1514 1515 1516 1515 1515 1515 1515 1515 1515 1515 1514 1514 1513 1513 1512 1512 1511 1510 1509 1509 1508 1508 1508 1508 1508 1507 1507 1506 1504 1503 1502 1500 1499 1497 1495
1493 1493 1494 1494 1495 1495 1496 1496 1497 1497 1498 1498 1499 1500 1500 1500 1500 1499 1499 1498 1499 1499 1499 1499 1500 1500 1500 1500 1501 1502 1503 1505 1506 1508 1509 1509 1509 1509 1509 1508 1507 1509 1510 1511 1511 1511 1511 1512 1512 1511 1512 1512 1513 1513 1513 1513 1513 1512 1512 1511 1511 1510 1510 1509 1509 1509 1508 1507 1506 1506 1505 1504 1504 1504 1504 1504 1503 1502 1501 1500 1498 1497 1496 1494 1492
1492 1493 1493 1494 1494 1495 1495 1495 1495 1496 1496 1497 1498 1499 1499 1499 1499 1498 1498 1498 1498 1497 1498 1498 1497 1498 1498 1498 1499 1500 1500 1501 1503 1504 1505 1506 1507 1507 1506 1505 1505 1507 1508 1509 1509 1510 1510 1510 1510 1510 1509 1509 1509 1510 1510 1510 1510 1510 1509 1509 1508 1507 1507 1506 1505 1505 1504 1503 1502 1502 1501 1501 1500 1501 1501 1500 1499 1498 1497 1496 1495 1494 1493 1491 1490
1492 1492 1492 1493 1493 1494 1494 1494 1494 1494 1495 1495 1496 1497 1497 1498 1498 1498 1497 1497 1497 1497 1496 1496 1496 1496 1496 1496 1497 1497 1497 1498 1500 1501 1501 1503 1504 1504 1504 1503 1503 1505 1506 1507 1507 1508 1508 1508 1508 1508 1508 1507 1507 1507 1506 1506 1506 1506 1505 1505 1504 1504 1503 1502 1502 1501 1500 1499 1497 1497 1497 1497 1496 1496 1497 1497 1495 1493 1492 1492 1492 1491 1489 1488 1486
1492 1492 1492 1492 1492 1492 1493 1493 1493 1493 1493 1494 1494 1495 1496 1496 1496 1496 1496 1496 1496 1496 1495 1495 1495 1495 1495 1494 1495 1495 1495 1495 1497 1498 1499 1499 1500 1501 1501 1501 1501 1503 1504 1505 1505 1506 1506 1506 1506 1506 1506 1505 1505 1504 1504 1504 1503 1503 1502 1501 1501 1500 1500 1499 1499 1498 1497 1495 1493 1492 1493 1493 1492 1492 1492 1492 1491 1489 1488 1487 1487 1486 1485 1483 1482
1491 1491 1491 1491 1491 1491 1491 1491 1492 1492 1492 1492 1493 1493 1493 1494 1494 1494 1494 1494 1494 1494 1494 1494 1493 1493 1493 1492 1493 1493 1493 1493 1494 1495 1496 1497 1498 1499 1499 1499 1500 1501 1502 1502 1503 1503 1503 1503 1503 1503 1504 1503 1503 1502 1502 1501 1501 1500 1499 1498 1498 1497 1496 1496 1495 1494 1493 1492 1490 1489 1489 1489 1488 1488 1488 1488 1487 1486 1485 1484 1483 1482 1480 1478 1477
1490 1490 1490 1490 1490 1490 1490 1490 1490 1490 1490 1490 1491 1491 1491 1491 1491 1492 1492 1492 1492 1491 1492 1492 1491 1491 1491 1490 1490 1490 1490 1491 1492 1493 1494 1495 1496 1496 1495 1496 1497 1499 1500 1500 1501 1501 1501 1501 1501 1501 1501 1500 1499 1499 1499 1499 1498 1497 1496 1495 1494 1493 1493 1492 1492 1491 1490 1489 1488 1487 1486 1485 1485 1484 1484 1484 1483 1483 1482 1480 1479 1479 1477 1473 1471
1488 1488 1489 1489 1489 1489 1489 1489 1489 1489 1489 1489 1488 1488 1488 1488 1489 1489 1489 1489 1489 1489 1489 1489 1489 1489 1489 1488 1487 1487 1488 1489 1489 1490 1491 1492 1492 1493 1493 1494 1495 1496 1497 1498 1498 1498 1499 1499 1499 1499 1498 1497 1496 1496 1496 1495 1494 1493 1492 1491 1490 1489 1488 1488 1487 1486 1486 1485 1484 1483 1482 1482 1481 1480 1480 1480 1479 1480 1478 1475 1474 1475 1473 1469 1466
1487 1487 1487 1487 1487 1487 1487 1487 1487 1487 1487 1487 1487 1487 1486 1486 1486 1486 1486 1486 1487 1487 1487 1487 1487 1486 1485 1485 1484 1484 1485 1486 1487 1487 1488 1489 1489 1490 1491 1492 1493 1494 1495 1496 1496 1496 1497 1497 1497 1496 1496 1495 1494 1493 1492 1491 1490 1490 1488 1487 1486 1485 1484 1483 1482 1481 1481 1480 1479 1478 1477 1477 1476 1475 1475 1475 1475 1475 1473 1470 1470 1470 1468 1465 1463
1485 1485 1486 1486 1485 1485 1485 1485 1485 1485 1485 1485 1485 1484 1484 1484 1484 1484 1484 1484 1484 1484 1484 1484 1483 1482 1482 1482 1481 1482 1483 1483 1484 1485 1485 1487 1488 1488 1489 1490 1491 1492 1493 1494 1494 1494 1495 1495 1495 1494 1494 1493 1491 1490 1489 1489 1488 1487 1485 1484 1482 1481 1480 1479 1478 1476 1475 1474 1473 1472 1472 1472 1471 1471 1470 1470 1470 1470 1469 1467 1467 1466 1463 1461 1461
1483 1483 1483 1483 1483 1483 1483 1483 1483 1483 1483 1482 1482 1482 1482 1482 1481 1481 1482 1482 1482 1482 1481 1480 1479 1479 1479 1479 1479 1480 1480 1481 1481 1482 1483 1485 1486 1486 1487 1487 1488 1489 1490 1491 1492 1492 1493 1493 1492 1492 1491 1490 1489 1488 1487 1486 1485 1484 1482 1481 1479 1478 1476 1475 1473 1472 1470 1468 1467 1466 1466 1465 1465 1465 1465 1465 1465 1465 1465 1464 1463 1462 1460 1458 1458
1481 1480 1480 1480 1480 1480 1480 1480 1480 1480 1480 1480 1480 1480 1479 1479 1479 1479 1480 1480 1480 1480 1478 1476 1476 1476 1476 1477 1477 1478 1478 1479 1480 1481 1482 1483 1483 1484 1484 1485 1486 1487 1488 1489 1490 1491 1491 1491 1489 1488 1488 1487 1486 1485 1484 1483 1482 1480 1479 1477 1476 1474 1472 1470 1468 1467 1465 1463 1461 1460 1460 1459 1459 1459 1459 1459 1459 1459 1459 1459 1459 1458 1457 1456 1455
1478 1478 1477 1477 1477 1477 1477 1477 1477 1477 1477 1477 1477 1477 1476 1477 1477 1477 1477 1478 1478 1477 1474 1473 1473 1473 1474 1474 1475 1476 1476 1477 1479 1479 1480 1481 1481 1482 1482 1483 1484 1486 1487 1488 1488 1488 1489 1488 1486 1485 1485 1484 1483 1482 1481 1480 1478 1476 1475 1473 1471 1470 1468 1466 1464 1462 1460 1458 1457 1455 1455 1454 1454 1454 1454 1454 1454 1454 1454 1454 1454 1454 1454 1453 1453
1475 1475 1474 1474 1474 1474 1474 1474 1474 1473 1473 1474 1474 1473 1473 1473 1474 1474 1474 1475 1475 1473 1471 1470 1471 1471 1472 1472 1473 1474 1475 1476 1477 1478 1479 1479 1480 1480 1481 1482 1483 1484 1485 1486 1486 1486 1486 1485 1483 1482 1481 1481 1480 1479 1478 1476 1474 1472 1471 1469 1467 1466 1464 1462 1460 1459 1457 1455 1454 1452 1452 1451 1451 1450 1450 1450 1450 1450 1450 1450 1451 1451 1450 1450 1450
1472 1471 1471 1471 1471 1471 1471 1471 1471 1471 1471 1471 1471 1471 1471 1470 1470 1470 1471 1472 1472 1470 1469 1468 1469 1470 1470 1470 1471 1472 1473 1474 1475 1476 1477 1478 1479 1480 1480 1481 1482 1482 1483 1483 1483 1483 1482 1482 1481 1480 1479 1478 1477 1476 1474 1472 1470 1469 1467 1466 1465 1463 1462 1460 1458 1457 1455 1453 1452 1451 1450 1450 1449 1448 1448 1448 1447 1447 1447 1447 1447 1447 1446 1446 1446
1469 1468 1468 1468 1468 1468 1467 1467 1468 1468 1468 1468 1468 1468 1468 1468 1467 1468 1468 1469 1469 1468 1467 1467 1468 1468 1469 1469 1470 1471 1472 1473 1474 1475 1476 1477 1478 1479 1479 1480 1480 1481 1481 1480 1480 1480 1480 1479 1478 1477 1476 1475 1474 1472 1471 1469 1468 1466 1465 1464 1463 1461 1460 1458 1457 1455 1454 1452 1451 1450 1448 1448 1447 1447 1446 1446 1445 1444 1444 1444 1443 1443 1443 1442 1441
1466 1465 1465 1465 1465 1465 1464 1464 1464 1464 1464 1465 1464 1465 1465 1464 1464 1464 1465 1465 1465 1465 1464 1465 1466 1467 1468 1468 1468 1470 1471 1472 1473 1474 1475 1476 1477 1478 1478 1479 1479 1479 1478 1478 1478 1477 1477 1476 1475 1474 1473 1472 1471 1469 1468 1467 1466 1465 1464 1463 1461 1460 1458 1457 1455 1454 1452 1451 1449 1448 1447 1446 1446 1445 1444 1443 1442 1442 1441 1440 1440 1439 1439 1439 1438
1463 1462 1462 1462 1461 1461 1461 1461 1460 1461 1461 1461 1461 1461 1461 1460 1460 1461 1461 1462 1462 1462 1462 1463 1465 1466 1466 1467 1467 1469 1471 1472 1473 1474 1475 1475 1476 1477 1477 1477 1477 1476 1476 1476 1475 1475 1474 1473 1472 1471 1470 1469 1469 1468 1467 1465 1464 1463 1462 1461 1460 1458 1457 1456 1454 1453 1451 1449 1448 1446 1445 1444 1443 1442 1441 1440 1439 1439 1439 1438 1437 1436 1436 1436 1434
1459 1459 1458 1458 1457 1457 1457 1457 1457 1457 1457 1457 1457 1457 1456 1456 1457 1457 1458 1459 1459 1460 1461 1462 1463 1464 1465 1466 1467 1469 1471 1472 1473 1473 1474 1475 1475 1475 1476 1476 1475 1475 1475 1474 1474 1473 1472 1471 1470 1469 1468 1468 1467 1466 1465 1464 1463 1462 1460 1459 1458 1457 1455 1454 1452 1451 1449 1448 1446 1444 1443 1442 1440 1439 1438 1437 1436 1436 1435 1435 1434 1433 1432 1432 1430
1455 1455 1454 1454 1454 1454 1453 1453 1453 1453 1453 1452 1452 1452 1453 1453 1454 1455 1456 1456 1457 1458 1459 1460 1461 1462 1464 1466 1467 1468 1470 1471 1472 1473 1474 1474 1475 1475 1475 1475 1475 1474 1474 1473 1472 1471 1470 1469 1468 1468 1467 1467 1465 1464 1463 1462 1461 1460 1458 1457 1456 1454 1453 1451 1450 1448 1447 1445 1443 1441 1440 1438 1437 1436 1434 1433 1432 1432 1431 1431 1430 1429 1429 1428 1426
1451 1451 1450 1450 1449 1449 1448 1448 1448 1449 1448 1447 1448 1449 1450 1451 1452 1453 1454 1454 1455 1456 1457 1459 1460 1462 1464 1466 1468 1468 1470 1471 1472 1473 1474 1474 1475 1475 1475 1475 1474 1474 1473 1472 1470 1469 1468 1468 1468 1467 1466 1465 1463 1462 1461 1460 1458 1457 1456 1455 1453 1451 1450 1449 1447 1445 1444 1442 1440 1438 1436 1434 1432 1431 1430 1428 1427 1427 1426 1426 1425 1425 1424 1423 1422
1448 1447 1446 1445 1444 1443 1443 1443 1443 1443 1444 1444 1445 1446 1447 1449 1450 1451 1452 1453 1454 1455 1457 1459 1460 1463 1465 1467 1468 1469 1471 1472 1472 1473 1474 1474 1474 1474 1474 1473 1473 1472 1471 1470 1469 1467 1467 1467 1467 1466 1464 1463 1462 1460 1459 1458 1456 1455 1453 1452 1450 1448 1447 1445 1444 1442 1440 1438 1436 1434 1432 1430 1428 1427 1425 1424 1423 1422 1421 1421 1421 1420 1419 1419 1418
1444 1442 1441 1440 1438 1438 1438 1438 1438 1439 1440 1441 1442 1443 1444 1445 1448 1450 1452 1453 1455 1457 1458 1460 1462 1464 1467 1468 1469 1470 1471 1472 1473 1473 1473 1473 1473 1472 1472 1472 1471 1470 1470 1469 1468 1467 1467 1466 1465 1464 1463 1461 1460 1459 1457 1456 1454 1453 1451 1449 1447 1446 1444 1442 1440 1438 1436 1434 1432 1430 1428 1426 1424 1422 1421 1420 1418 1417 1416 1416 1416 1415 1414 1414 1413
1441 1439 1438 1436 1435 1435 1434 1435 1435 1436 1437 1439 1440 1442 1443 1444 1445 1448 1452 1455 1457 1459 1460 1462 1464 1466 1468 1469 1470 1470 1471 1472 1472 1472 1472 1472 1472 1471 1471 1471 1470 1469 1469 1468 1467 1467 1466 1465 1464 1462 1461 1460 1458 1457 1455 1454 1452 1451 1449 1447 1445 1443 1441 1439 1437 1435 1433 1431 1428 1426 1424 1422 1420 1418 1417 1415 1414 1413 1412 1411 1411 1410 1410 1409 1408
1440 1439 1438 1437 1436 1435 1434 1434 1435 1436 1437 1439 1441 1442 1444 1446 1447 1449 1452 1455 1458 1460 1462 1464 1466 1467 1469 1470 1470 1471 1471 1472 1471 1471 1471 1471 1471 1471 1471 1471 1470 1469 1468 1468 1467 1466 1465 1464 1462 1461 1460 1459 1457 1455 1453 1452 1450 1449 1447 1445 1442 1440 1438 1436 1433 1431 1429 1427 1424 1422 1420 1418 1416 1414 1412 1411 1410 1409 1407 1406 1406 1406 1405 1404 1403
1441 1440 1439 1439 1438 1437 1436 1437 1437 1438 1440 1441 1443 1445 1447 1449 1451 1453 1455 1457 1459 1461 1463 1465 1467 1468 1469 1470 1470 1471 1471 1471 1471 1471 1471 1471 1471 1471 1471 1470 1470 1469 1468 1468 1467 1466 1464 1463 1461 1460 1459 1457 1455 1453 1452 1450 1448 1446 1444 1442 1439 1437 1434 1432 1429 1427 1425 1423 1420 1418 1416 1414 1413 1411 1409 1407 1406 1404 1403 1402 1402 1401 1400 1400 1399
1442 1442 1442 1442 1441 1440 1440 1440 1440 1441 1443 1444 1446 1448 1450 1452 1454 1456 1458 1460 1462 1463 1465 1466 1467 1468 1469 1469 1470 1470 1471 1471 1471 1471 1471 1471 1471 1471 1470 1470 1470 1469 1468 1467 1466 1465 1463 1462 1460 1459 1457 1455 1454 1452 1450 1448 1447 1444 1442 1439 1436 1433 1431 1428 1426 1424 1421 1419 1416 1414 1412 1410 1409 1407 1405 1403 1402 1400 1399 1398 1397 1396 1396 1396 1395
1444 1445 1445 1445 1444 1444 1444 1444 1445 1446 1447 1448 1450 1452 1454 1456 1458 1459 1460 1462 1463 1464 1466 1466 1467 1468 1468 1469 1470 1470 1471 1471 1471 1471 1471 1471 1471 1470 1470 1469 1469 1468 1467 1466 1465 1463 1462 1461 1459 1457 1456 1454 1452 1451 1449 1447 1445 1442 1440 1437 1433 1430 1428 1425 1423 1420 1418 1415 1413 1411 1409 1407 1405 1403 1402 1399 1397 1396 1395 1394 1393 1392 1391 1391 1391
1446 1447 1447 1447 1448 1447 1447 1448 1449 1450 1451 1452 1454 1455 1457 1458 1460 1461 1462 1463 1464 1465 1466 1467 1467 1468 1469 1469 1470 1471 1471 1471 1471 1471 1471 1471 1470 1470 1470 1469 1468 1467 1466 1465 1464 1462 1461 1459 1458 1456 1455 1453 1451 1449 1447 1445 1443 1440 1437 1433 1430 1428 1425 1422 1420 1417 1415 1412 1410 1407 1405 1403 1401 1400 1398 1396 1394 1392 1391 1390 1389 1388 1387 1387 1387
1447 1448 1448 1449 1450 1450 1451 1451 1452 1452 1454 1455 1457 1458 1459 1460 1461 1462 1463 1463 1464 1465 1466 1467 1467 1468 1468 1469 1470 1470 1470 1471 1471 1471 1471 1471 1470 1470 1469 1468 1467 1466 1465 1464 1463 1461 1459 1458 1456 1455 1454 1452 1450 1448 1446 1443 1441 1437 1434 1431 1428 1425 1422 1419 1416 1414 1411 1409 1406 1404 1402 1400 1398 1396 1394 1392 1391 1389 1387 1386 1386 1385 1384 1383 1383
1448 1449 1450 1451 1452 1453 1453 1454 1454 1456 1457 1458 1459 1459 1460 1461 1462 1463 1464 1464 1465 1466 1467 1467 1468 1468 1468 1469 1469 1469 1470 1471 1471 1470 1470 1470 1470 1469 1468 1468 1467 1466 1464 1463 1461 1459 1458 1457 1455 1454 1452 1451 1449 1447 1444 1441 1438 1435 1432 1429 1425 1422 1419 1417 1414 1411 1408 1406 1403 1401 1398 1396 1394 1392 1391 1389 1387 1386 1384 1383 1382 1382 1381 1380 1380
1450 1451 1451 1453 1454 1454 1455 1456 1457 1458 1459 1459 1460 1461 1462 1462 1463 1464 1465 1465 1466 1467 1467 1467 1468 1468 1469 1469 1469 1469 1470 1470 1470 1469 1469 1469 1469 1468 1468 1467 1466 1465 1463 1462 1460 1458 1457 1456 1454 1453 1452 1450 1448 1445 1442 1440 1436 1433 1430 1427 1423 1420 1417 1414 1411 1408 1405 1402 1400 1397 1395 1393 1391 1389 1388 1386 1384 1383 1381 1380 1380 1379 1379 1378 1378
1451 1452 1453 1454 1455 1456 1457 1458 1458 1459 1459 1460 1461 1462 1462 1463 1463 1464 1465 1466 1466 1467 1467 1468 1468 1468 1469 1468 1469 1469 1469 1469 1469 1469 1469 1469 1468 1468 1467 1466 1465 1464 1462 1461 1459 1458 1456 1455 1453 1452 1451 1449 1447 1444 1441 1438 1435 1431 1428 1425 1421 1418 1415 1412 1409 1406 1403 1400 1397 1394 1392 1390 1388 1387 1385 1383 1381 1380 1379 1378 1377 1377 1376 1376 1376
1452 1453 1454 1456 1457 1458 1458 1459 1459 1460 1461 1461 1462 1462 1462 1463 1464 1465 1465 1466 1467 1467 1467 1468 1468 1468 1468 1468 1468 1468 1469 1468 1468 1468 1468 1468 1468 1467 1466 1465 1464 1463 1462 1460 1459 1457 1455 1454 1453 1452 1450 1449 1446 1444 1440 1437 1433 1430 1426 1423 1420 1416 1413 1409 1406 1403 1400 1397 1395 1392 1390 1388 1386 1384 1382 1380 1379 1378 1377 1376 1375 1374 1374 1374 1374
1453 1454 1455 1457 1458 1459 1459 1460 1460 1461 1462 1462 1463 1463 1463 1464 1465 1465 1466 1467 1467 1467 1468 1468 1468 1468 1468 1468 1468 1468 1468 1467 1467 1468 1468 1467 1467 1466 1466 1465 1463 1462 1461 1459 1458 1457 1455 1454 1452 1451 1450 1448 1446 1443 1440 1436 1433 1429 1425 1422 1418 1415 1411 1408 1404 1401 1398 1396 1393 1390 1388 1386 1384 1382 1380 1378 1377 1376 1375 1374 1373 1373 1372 1373 1373
1454 1455 1456 1457 1459 1459 1460 1461 1461 1462 1462 1463 1463 1463 1464 1465 1465 1466 1466 1467 1467 1467 1467 1467 1468 1468 1468 1468 1468 1467 1467 1467 1467 1467 1467 1467 1466 1466 1465 1464 1463 1462 1460 1459 1457 1456 1455 1454 1452 1450 1449 1447 1445 1442 1439 1436 1432 1429 1425 1421 1417 1414 1410 1407 1404 1400 1397 1394 1392 1389 1387 1384 1382 1380 1378 1377 1375 1374 1373 1372 1372 1371 1371 1371 1371
1455 1456 1457 1458 1459 1459 1460 1460 1461 1462 1462 1463 1463 1464 1464 1465 1465 1466 1466 1466 1467 1467 1467 1468 1468 1468 1467 1467 1467 1467 1466 1466 1466 1466 1466 1466 1466 1465 1464 1463 1462 1461 1460 1458 1457 1456 1455 1453 1452 1450 1448 1446 1444 1441 1438 1435 1432 1428 1425 1421 1417 1414 1410 1407 1403 1400 1397 1394 1391 1388 1386 1384 1382 1380 1378 1376 1374 1373 1372 1371 1371 1370 1370 1370 1370
1456 1456 1457 1458 1459 1459 1460 1461 1461 1462 1463 1463 1464 1464 1465 1465 1465 1466 1466 1466 1467 1467 1467 1468 1468 1467 1466 1466 1466 1466 1466 1466 1466 1466 1465 1465 1465 1465 1464 1463 1462 1461 1460 1458 1457 1456 1454 1453 1451 1449 1448 1446 1444 1441 1438 1435 1432 1429 1425 1421 1418 1414 1411 1407 1403 1400 1397 1394 1391 1389 1386 1384 1382 1380 1378 1376 1374 1373 1372 1371 1370 1370 1370 1370 1370
1455 1456 1457 1458 1459 1460 1460 1461 1462 1462 1463 1464 1464 1464 1465 1465 1465 1466 1466 1466 1467 1467 1467 1467 1467 1466 1465 1465 1465 1465 1465 1465 1465 1465 1465 1465 1464 1464 1463 1462 1462 1461 1459 1458 1457 1455 1454 1452 1450 1449 1448 1446 1444 1441 1438 1436 1432 1429 1426 1422 1419 1415 1411 1407 1404 1401 1398 1395 1392 1390 1387 1385 1382 1380 1378 1377 1375 1374 1373 1372 1371 1371 1370 1370 1371
1456 1457 1458 1458 1459 1460 1461 1462 1462 1463 1463 1464 1464 1464 1465 1465 1465 1465 1466 1466 1466 1466 1466 1466 1465 1465 1464 1465 1464 1464 1465 1465 1464 1464 1464 1464 1464 1464 1463 1462 1461 1460 1459 1458 1457 1455 1453 1452 1450 1449 1448 1447 1445 1442 1440 1436 1433 1430 1427 1423 1420 1416 1412 1408 1405 1402 1399 1396 1394 1391 1388 1386 1384 1382 1380 1378 1376 1375 1374 1373 1373 1372 1372 1372 1372
1456 1457 1458 1459 1460 1461 1462 1462 1462 1463 1464 1464 1465 1465 1465 1465 1465 1465 1465 1465 1465 1465 1465 1465 1465 1464 1464 1464 1464 1464 1464 1464 1464 1464 1464 1464 1463 1463 1462 1461 1461 1460 1459 1458 1456 1455 1453 1452 1450 1449 1449 1448 1446 1443 1441 1437 1434 1431 1428 1425 1422 1418 1414 1410 1407 1404 1401 1398 1395 1393 1390 1388 1386 1384 1382 1380 1379 1377 1376 1375 1375 1375 1374 1374 1375
1457 1458 1459 1460 1460 1461 1462 1462 1463 1463 1464 1464 1464 1464 1464 1464 1464 1464 1464 1464 1464 1464 1464 1464 1464 1464 1463 1463 1463 1463 1463 1463 1463 1463 1463 1463 1463 1463 1462 1461 1460 1460 1459 1458 1456 1455 1453 1452 1451 1450 1449 1448 1446 1444 1441 1439 1436 1432 1429 1426 1423 1420 1416 1412 1409 1406 1403 1400 1398 1395 1393 1390 1388 1386 1384 1383 1381 1380 1379 1378 1378 1378 1378 1378 1378